Regional Weather Roundup
Issued by NWS

Home | Current Version | Previous Version | Graphics & Text | Print | Product List | Glossary Off
Versions: 1 2 3 4 5 6 7 8 9 10 11 12 13 14 15 16 17 18 19 20 21 22 23 24 25 26 27 28 29 30 31 32 33 34 35 36 37 38 39 40 41 42 43 44 45 46 47 48 49 50

000
ASUS43 KDMX 210007
RWRIA

WEATHER ROUNDUP FOR IOWA
NATIONAL WEATHER SERVICE DES MOINES IA
600 PM CST SAT DEC 20 2014

NOTE: "FAIR" INDICATES FEW OR NO CLOUDS BELOW 12,000 FEET WITH NO
SIGNIFICANT WEATHER AND/OR OBSTRUCTIONS TO VISIBILITY.

* - THESE STATIONS ARE NOT NWS STATIONS...THUS NOT UNDER NWS
QUALITY CONTROL.  THEY ALSO DO NOT REPORT WEATHER SUCH
AS PRECIPITATION OR FOG.

IAZ001>003-012>014-020>022-031>034-043>046-210100-
   NORTHWEST IOWA

CITY           SKY/WX    TMP DP  RH WIND       PRES   REMARKS
CARROLL *      CLOUDY    34  32  93 S8        30.09S WCI  27
CHEROKEE *     CLOUDY    32  32  99 S10       30.08R WCI  24
DENISON *      CLOUDY    32  32 100 S10       30.06S FOG     WCI  24
LE MARS *      CLOUDY    32  30  93 S10       30.06S WCI  24
ORANGE CITY *  CLOUDY    32  30  93 S10       30.04F FOG     WCI  24
SHELDON *      CLOUDY    30  32 100 S15       30.04S FOG     WCI  19
SIOUX CITY     CLOUDY    33  30  88 S12       30.06F FOG     WCI  24
6HR MIN TEMP:  33; 6HR MAX TEMP:  34;

SPENCER        CLOUDY    33  28  81 S14       30.08R WCI  23
6HR MIN TEMP:  31; 6HR MAX TEMP:  33;

STORM LAKE *   CLOUDY    32  30  93 S12       30.07S WCI  23
$$

IAZ055>058-069>071-079>083-090>094-210100-
   SOUTHWEST IOWA

CITY           SKY/WX    TMP DP  RH WIND       PRES   REMARKS
ATLANTIC *     CLOUDY    34  34 100 S8        30.10R FOG     WCI  27
AUDUBON *      CLOUDY    34  28  80 S7        30.10R HAZE    WCI  28
CLARINDA *     CLOUDY    34  34 100 CALM      30.12S
COUNCIL BLFS * CLOUDY    32  32 100 S7        30.08R FOG     WCI  26
CRESTON *      CLOUDY    34  34 100 S8        30.11R FOG     WCI  27
HARLAN  *      CLOUDY    32  32 100 S8G14     30.12R FOG     WCI  25
LAMONI         CLOUDY    35  34  96 SE7       30.12S FOG     WCI  29
6HR MIN TEMP:  33; 6HR MAX TEMP:  35;

RED OAK *      CLOUDY    34  32  93 S6        30.10S WCI  29
SHENANDOAH *   CLOUDY    34  34 100 S8        30.11S WCI  27
$$

IAZ047>049-059>061-072>074-084-210100-
   CENTRAL IOWA

CITY           SKY/WX    TMP DP  RH WIND       PRES   REMARKS
AMES           CLOUDY    33  32  96 SE6       30.13R FOG     WCI  28
6HR MIN TEMP:  32; 6HR MAX TEMP:  33;

ANKENY *       CLOUDY    34  34 100 S6        30.14R FOG     WCI  29
CHARITON *     CLOUDY    36  34  93 S7        30.13R FOG     WCI  30
DES MOINES     DRIZZLE   36  33  89 SE7       30.14R FOG     WCI  30
6HR MIN TEMP:  34; 6HR MAX TEMP:  36; 6HR PCP: TRACE;

GRINNELL*      FOG       32  32 100 SE6       30.14F VSB 1/2 WCI  26
KNOXVILLE *    CLOUDY    34  34 100 SE6       30.13S FOG     WCI  29
MARSHALLTOWN   CLOUDY    33  32  96 SE9       30.13F FOG     WCI  25
6HR MIN TEMP:  32; 6HR MAX TEMP:  33;

PELLA *        CLOUDY    34  34  99 SE5       30.16S FOG     WCI  30
PERRY *        CLOUDY    34  34 100 SE6       30.11S FOG     WCI  29
$$

IAZ004>006-015-016-023>025-035-036-210100-
   NORTH CENTRAL IOWA

CITY           SKY/WX    TMP DP  RH WIND       PRES   REMARKS
ALGONA *       CLOUDY    32  32 100 S10       30.10S FOG     WCI  24
CLARION *      CLOUDY    32  32 100 SE13      30.11S FOG     WCI  22
ESTHERVILLE    CLOUDY    31  28  89 S13       30.07S WCI  21
6HR MIN TEMP:  30; 6HR MAX TEMP:  31;

FORT DODGE *   CLOUDY    32  28  86 S5        30.11S WCI  27
MASON CITY     CLOUDY    30  28  93 SE8       30.13F WCI  23
FOREST CITY *  CLOUDY    32  30  93 SE7       30.11S WCI  26
IOWA FALLS *   CLOUDY    32  31  94 SE7       30.13S FOG     WCI  26
$$

IAZ007>011-017>019-026>030-037>042-050>054-066-210100-
   NORTHEAST IOWA

CITY           SKY/WX    TMP DP  RH WIND       PRES   REMARKS
CEDAR RAPIDS   CLOUDY    32  32 100 SE6       30.18R FOG     WCI  26
6HR MIN TEMP:  31; 6HR MAX TEMP:  32; 6HR PCP: TRACE;

CHARLES CITY * CLOUDY    30  32 100 SE7       30.14F WCI  23
CLINTON *      CLOUDY    34  27  75 SE7       30.25R WCI  28
DECORAH *      CLOUDY    30  30 100 S7        30.15S FOG     WCI  23
DUBUQUE        CLOUDY    30  26  85 SE6       30.19S FOG     WCI  24
6HR MIN TEMP:  30; 6HR MAX TEMP:  31;

MONTICELLO *   CLOUDY    32  32 100 SE6       30.20R FOG     WCI  26
OELWEIN *      CLOUDY    32  32 100 S9        30.16S FOG     WCI  24
WATERLOO       CLOUDY    32  31  96 S7        30.16S FOG     WCI  26
6HR MIN TEMP:  32; 6HR MAX TEMP:  32; 6HR PCP: TRACE;

$$

IAZ064-065-067-068-078-210100-
   EAST CENTRAL IOWA

CITY           SKY/WX    TMP DP  RH WIND       PRES   REMARKS
DAVENPORT      CLOUDY    32  29  88 SE8       30.22R FOG     WCI  25
6HR MIN TEMP:  32; 6HR MAX TEMP:  33;

IOWA CITY      CLOUDY    32  31  96 SE6       30.21R FOG     WCI  26
6HR MIN TEMP:  32; 6HR MAX TEMP:  33; 6HR PCP: TRACE;

MT. PLEASANT * CLOUDY    33  33 100 SE5       30.20R FOG     WCI  29
MUSCATINE *    CLOUDY    34  32  93 SE5       30.22R FOG     WCI  30
QUAD CITIES    CLOUDY    34  28  79 SE5       30.21S WCI  30
6HR MIN TEMP:  33; 6HR MAX TEMP:  34;

$$

IAZ062-063-075>077-085>089-095>099-210100-
   SOUTHEAST IOWA

CITY           SKY/WX    TMP DP  RH WIND       PRES   REMARKS
BURLINGTON     CLOUDY    36  33  89 SE7       30.20R FOG     WCI  30
6HR MIN TEMP:  34; 6HR MAX TEMP:  36; 6HR PCP: TRACE;

FAIRFIELD *    CLOUDY    34  32  93 SE6       30.18S FOG     WCI  29
FORT MADISON * CLOUDY    37  36  93 SE8       30.20S FOG     WCI  31
KEOKUK *       CLOUDY    36  36 100 S5        30.19S FOG     WCI  32
OSKALOOSA *    FOG       33  33  99 SE7       30.17S VSB 3/4 WCI  27
CENTERVILLE *  CLOUDY    36  36 100 S7        30.16S WCI  30
OTTUMWA        CLOUDY    35  34  96 SE6       30.16S FOG     WCI  30
6HR MIN TEMP:  33; 6HR MAX TEMP:  35;

WASHINGTON *   CLOUDY    34  34 100 SE8       30.19S FOG     WCI  27
$$

ABBREVIATIONS USED IN REMARKS
   TC - TEMPERATURES IN CELSIUS
  WCI - WIND CHILL INDEX
   HX - HEAT INDEX
  VSB - VISIBILITY
$$



USA.gov is the U.S. government's official web portal to all federal, state and local government web resources and services.